Location: Bosdarros
(43.2167°N, 0.3667°W)
Time: 11:19:17
(UTC+00:00)

FENGYUN 1C DEB - Pass Details

Date: 01 November 2021
Orbit: 805 x 871 km, 98.8° (Epoch: 26 November)

Event Time Altitude Azimuth Distance (km) Brightness Sun altitude
Exits shadow 18:42:44 40° 73° (ENE) 1,188 ? -20.4°
Maximum altitude 18:42:55 40° 68° (ENE) 1,186 ? -20.5°
Drops below altitude 10° 18:47:52 10° 0° (N) 2,425 ? -21.4°
Sets 18:50:21 0° 353° (N) 3,371 ? -21.8°
